Regional Weather Roundup
Issued by NWS State College, PA

Home | Current Version | Previous Version | Text Only | Print | Product List | Glossary On
Versions: 1 2 3 4 5 6 7 8 9 10 11 12 13 14 15 16 17 18 19 20 21 22 23 24 25 26 27 28 29 30 31 32 33 34 35 36 37 38 39 40 41 42 43 44 45 46 47 48 49 50
000
ASUS41 KCTP 221403
RWRCTP

REGIONAL WEATHER ROUNDUP
NATIONAL WEATHER SERVICE STATE COLLEGE PA
900 AM EST WED FEB 22 2017

Note: "fair" indicates few or no clouds below 12,000 feet with no
significant weather and/or obstructions to visibility.

* = STATION THAT DOES NOT REPORT PRECIPITATION /E.G. RAIN...SNOW...ETC/
    THUNDER OR FOG.

PAZ002>004-007>009-013>016-020>023-029>032-221500-
WESTERN PENNSYLVANIA

CITY           SKY/WX    TMP DP  RH WIND       PRES   REMARKS
ERIE           CLOUDY    56  48  74 S7        29.91F
MEADVILLE      LGT RAIN  53  46  77 S6        29.93S
FRANKLIN*      CLOUDY    52  45  76 SW5       29.95F
NEW CASTLE     LGT RAIN  51  50  96 CALM      29.95F FOG
BEAVER COUNTY  CLOUDY    52  45  76 S5        29.95
BUTLER*        FAIR      54  43  66 S3        29.96F
PITTSBURGH INT CLOUDY    55  46  71 CALM      29.95F
PITTSBURGH     CLOUDY    55  39  54 S6        29.95F
INDIANA*       CLOUDY    54  43  66 SW5       29.99F
LATROBE        CLOUDY    50  43  76 CALM      29.99S
WASHINGTON CO* CLOUDY    54  45  71 S5        29.98S
$$

PAZ004>006-010>012-017>019-024>028-033>037-041-042-045-046-049>053-221500-
CENTRAL PENNSYLVANIA

CITY           SKY/WX    TMP DP  RH WIND       PRES   REMARKS
BRADFORD       CLOUDY    48  39  71 CALM      29.95R
DUBOIS         CLOUDY    49  37  63 CALM      29.95S
CLEARFIELD       N/A    N/A N/A N/A MISG      29.97F
JOHNSTOWN      CLOUDY    52  39  61 SW6       29.97F
ALTOONA        CLOUDY    47  39  74 CALM      29.99S
STATE COLLEGE  DRIZZLE   43  37  81 CALM      29.99S
WILLIAMSPORT   CLOUDY    44  33  65 CALM      30.00F
SELINSGROVE    FAIR      45  35  68 CALM      30.02S
FT INDIANTOWN  FAIR      43  42  96 VRB3      30.02F
CAPITAL CITY   PTSUNNY   45  36  70 E5        30.03S
HARRISBURG     CLOUDY    44  39  82 CALM      30.02F
YORK           FAIR      46  40  79 S3        30.02S
$$

PAZ038>040-043-044-047-048-054-055-060>062-067>071-221500-
EASTERN PENNSYLVANIA

CITY           SKY/WX    TMP DP  RH WIND       PRES   REMARKS
SCRANTON       CLOUDY    43  39  86 CALM      30.00S
MOUNT POCONO   LGT RAIN  40  34  79 NW6       29.98R
ALLENTOWN      PTSUNNY   43  34  70 CALM      30.04S
QUAKERTOWN*    FAIR      41  36  81 CALM      30.04S
READING        FAIR      44  38  79 CALM      30.02F
LANCASTER      FAIR      44  40  85 SE3       30.03S
COATESVILLE    FAIR      43  37  81 CALM      30.04F
POTTSTOWN      CLOUDY    43  36  76 CALM      30.05F
BLUE BELL      CLOUDY    41  37  87 CALM      30.03F
DOYLESTOWN     FAIR      45  37  73 SW3       30.03F
WILLOW GROVE   NOT AVBL
NORTH PHILA    CLOUDY    45  40  82 CALM      30.06F
PHILADELPHIA   CLOUDY    43  37  79 S7        30.05F
$$




USA.gov is the U.S. government's official web portal to all federal, state and local government web resources and services.